Regional Weather Roundup
Issued by NWS

Home | Current Version | Previous Version | Text Only | Print | Product List | Glossary On
Versions: 1 2 3 4 5 6 7 8 9 10 11 12 13 14 15 16 17 18 19 20 21 22 23 24 25 26 27 28 29 30 31 32 33 34 35 36 37 38 39 40 41 42 43 44 45 46 47 48 49 50
000
ASUS42 KTBW 211210
RWRFL
FLORIDA REGIONAL WEATHER ROUNDUP
NATIONAL WEATHER SERVICE TAMPA BAY RUSKIN FL
800 AM EDT SUN SEP 21 2014

NOTE: "FAIR" INDICATES FEW OR NO CLOUDS BELOW 12,000 FEET WITH NO
SIGNIFICANT WEATHER AND/OR OBSTRUCTIONS TO VISIBILITY.


FLZ001>010-012>015-112-114-115-211300-
PANHANDLE FLORIDA

CITY           SKY/WX    TMP DP  RH WIND       PRES   REMARKS
PENSACOLA      CLEAR     69  67  93 NE5       30.00S
PENSACOLA NAS  CLEAR     71  67  87 NE5       29.99S
MILTON NAS     CLEAR     67  64  90 CALM      30.02R
CRESTVIEW      CLEAR     64  63  96 CALM      30.04R FOG
DUKE FIELD     FAIR      65  65 100 NE2       30.02R
VALPARAISO     PTCLDY    68  65  91 N2        30.01S
MARY ESTHER    CLEAR     68  63  85 NE6       30.00R
TRI COUNTY     FAIR      64  64 100 MISG      30.04R FOG
PANAMA CITY    FAIR      68  65  90 N3        30.01R
TYNDALL AFB    CLEAR     69  69  99 E5        30.02R
APALACHICOLA   CLEAR     71  67  87 NE5       30.01R

STATION/POSITION SKY/WX   TEMP    WIND        PRES    WAVE   SWELL
                          AIR SEA DIR/SP/G            HT/PER HT/PER
                          (F)     (DEG/KT/KT) (MB)    (FT/S) (FT/S)
30.1N   87.6W              80 85   60/ 16/ 17 1015.3R   3/ 6
29.2N   88.2W              82 84   70/ 14/ 16 1015.3    3/ 6
28.8N   86.0W              78 84   90/ 19/ 21 1014.5R   3/ 5
PANAMA CITY BEAC           71 84   70/  5/  8 1016.3R
CAPE SAN BLAS    NOT AVBL
TOWER C                    78      70/ 12/ 14 1016.0R
28.5N   84.5W              80 84   70/ 14/ 16 1015.0R   3/ 5

$$
FLZ011-016>038-118-127-128-134-139-239-211300-
NORTH FLORIDA

CITY           SKY/WX    TMP DP  RH WIND       PRES   REMARKS
MARIANNA       CLEAR     66  66 100 CALM      30.03R
TALLAHASSEE    PTCLDY    63  63 100 CALM      30.03R
PERRY          CLEAR     64  64 100 CALM      30.02R
CROSS CITY       N/A     66  63  90 CALM      30.01R
LAKE CITY      FAIR      64  64 100 N5        30.02R
GAINESVILLE    CLEAR     67  65  93 CALM      30.01R
MAYPORT NAS    CLEAR     70  66  87 VRB5      29.99R
JACKSONVILLE   PTCLDY    65  64  97 N3        30.00R
JAX NAS        PTCLDY    71  64  78 N10       30.01R
JAX CRAIG      CLEAR     69  64  84 NW6       30.00R
JAX CECIL      CLEAR     63  63 100 CALM      30.01R
ST AUGUSTINE   CLEAR     68  66  93 NW8       30.00R

STATION/POSITION SKY/WX   TEMP    WIND        PRES    WAVE   SWELL
                          AIR SEA DIR/SP/G            HT/PER HT/PER
                          (F)     (DEG/KT/KT) (MB)    (FT/S) (FT/S)
SHELL POINT                68      10/  3/  5   N/A
KEATON BEACH               67      30/  3/  4 1016.6R
CEDAR KEY                  71      50/  7/  9 1016.5R
FERNANDINA                 70 82  340/ 11/ 12 1015.2R
30.7N   81.3W                 83                N/A     4/ 6
MAYPORT                    69 82  330/  6/ 10   N/A
31.4N   80.9W              75 83  350/ 14/ 17 1014.7R   4/ 8   2/ 8
ST AUGUSTINE               69     310/  6/  7 1016.0R

$$
FLZ040-043>046-052-053-057-058-063-144-211300-
INTERIOR CENTRAL FLORIDA

CITY           SKY/WX    TMP DP  RH WIND       PRES   REMARKS
OCALA          CLEAR     66  64  94 CALM      30.01R
THE VILLAGES     N/A     70  68  94 CALM      29.91R FOG
LEESBURG       CLEAR     70  68  93 N5        30.01R
SANFORD        FOG       70  70 100 NW5       29.99R VSB 1/4
ORLANDO EXEC   MOCLDY    72  70  93 CALM      29.99R FOG
ORLANDO INTL   FOG       71  71 100 N6        29.99R VSB 1/2
KISSIMMEE      FOG       72  70  94 N6        29.99R VSB 1
WINTER HAVEN   PTCLDY    72  70  93 N5        30.00R
LAKELAND       CLOUDY    73  70  88 CALM      30.00R
BARTOW         PTCLDY    70 N/A N/A CALM      29.99R
OKEECHOBEE       N/A     70  70 100 MISG      29.99R

$$
FLZ041-047-054-059-064-141-147-211300-
EAST CENTRAL FLORIDA

CITY           SKY/WX    TMP DP  RH WIND       PRES   REMARKS
ORMOND BEACH   CLEAR     68  66  94 CALM      29.99R FOG
DAYTONA BEACH  PTCLDY    70  69  97 NW5       30.00R
DELAND         MOSUNNY   68  68 100 CALM      30.01R
NEW SMYRNA BEA PTCLDY    70  68  94 W3        29.99R FOG
JFK SPACE CTR  CLEAR     72  70  95 NW3       29.99R
TITUSVILLE       N/A     70  70 100 CALM      29.99R FOG
CAPE CANAVERAL SUNNY     73  72  95 NW5       29.97R
PATRICK AFB    SUNNY     74  73  96 W5        29.98R
MELBOURNE      SUNNY     73  71  93 CALM      29.98R
VERO BEACH     FOG       69  69 100 SW3       29.98R VSB 1/4
FT PIERCE      MOSUNNY   73  70  90 CALM      29.98R
STUART         PTSUNNY   73  72  94 CALM      30.00R FOG

STATION/POSITION SKY/WX   TEMP    WIND        PRES    WAVE   SWELL
                          AIR SEA DIR/SP/G            HT/PER HT/PER
                          (F)     (DEG/KT/KT) (MB)    (FT/S) (FT/S)
28.5N   80.2W              78 84  290/ 10/ 12 1014.6R
28.9N   78.5W              81 84  290/ 12/ 14 1014.0R   4/ 9   3/ 9
TRIDENT PIER               74 84  290/  4/  6 1014.5R
28.4N   80.5W                 83                N/A     2/ 9
27.6N   80.2W                 83                N/A     2/ 9

$$
FLZ050-056-061-142-242-148-248-149-249-151-251-155-255-
160-260-211300-
WEST CENTRAL FLORIDA

CITY           SKY/WX    TMP DP  RH WIND       PRES   REMARKS
CRYSTAL RIVER  FAIR      68  66  94 CALM      30.01R
INVERNESS      FAIR      68  61  77 NE3       30.01R
BROOKSVILLE    CLEAR     70  68  93 CALM      30.01R
ZEPHYRHILLS    CLOUDY    63  63 100 CALM      30.01R
CLEARWATER     PTCLDY    74  71  91 NE7       29.99R
TAMPA INTL     PTCLDY    72  69  90 NE5       30.00R
TAMPA EXEC     CLOUDY    72  70  94 NE3       30.00R FOG
PLANT CITY     FOG       72 N/A N/A CALM      30.02R VSB 1/4
MACDILL AFB    CLEAR     72  72 100 NE6       29.99R
ST PETERSBURG  CLOUDY    75  72  90 E9        29.97R
SARASOTA       PTCLDY    74  73  97 E5        29.96R
VENICE           N/A    N/A N/A N/A MISG        N/A

STATION/POSITION SKY/WX   TEMP    WIND        PRES    WAVE   SWELL
                          AIR SEA DIR/SP/G            HT/PER HT/PER
                          (F)     (DEG/KT/KT) (MB)    (FT/S) (FT/S)
CEDAR KEY                  71      50/  7/  9 1016.5R
28.5N   84.5W              80 84   70/ 14/ 16 1015.0R   3/ 5
27.3N   84.3W                 84                N/A     2/ 5
CLEARWATER BEACH NOT AVBL
MIDDLE TAMPA BAY           74      90/  9/ 11 1015.4R
VENICE                     74 84  120/  7/  8 1014.7R

$$
FLZ066-069-070-075>078-162-262-165-265-211300-
SOUTHWEST FLORIDA AND KEYS

CITY           SKY/WX    TMP DP  RH WIND       PRES   REMARKS
PUNTA GORDA    LGT RAIN  75  74  96 CALM      30.00R
FT MYERS       CLOUDY    75  74  96 SE3       29.98R
SOUTHWEST INTL CLOUDY    74  68  81 CALM      29.99R
NAPLES         CLOUDY    77  75  93 CALM      29.98R
MARCO ISLAND   SUNNY     75  73  94 SE3       29.99R
MARATHON       CLOUDY    80  78  94 CALM      29.99R
KEY WEST NAS   CLOUDY    80  76  87 CALM      29.98R
KEY WEST INTL  LGT RAIN  82  74  76 S3        29.99R

STATION/POSITION SKY/WX   TEMP    WIND        PRES    WAVE   SWELL
                          AIR SEA DIR/SP/G            HT/PER HT/PER
                          (F)     (DEG/KT/KT) (MB)    (FT/S) (FT/S)
VENICE                     74 84  120/  7/  8 1014.7R
NAPLES                     77 87  110/  3/  4 1015.8R
DRY TORTUGAS               82     120/  6/  7 1014.9R
NW FL BAY                  82     160/  4/  5 1014.5R
SAND KEY                   81     120/  3/  4 1015.3R
SOMBRERO KEY               82     240/  5/  7 1016.5R
LONG KEY                   81 84  200/  5/  5 1016.5R
MOLASSES REEF              82 85   CALM  /  3 1015.8R

$$
FLZ067-068-071>074-168-172>174-211300-
SOUTHEAST FLORIDA

CITY           SKY/WX    TMP DP  RH WIND       PRES   REMARKS
W PALM BEACH   CLOUDY    76  75  97 CALM      29.98R
FT LAUDER-EXEC CLOUDY    75  75 100 CALM      29.99R
FT LAUDERDALE  CLOUDY    76  74  93 CALM      29.99R
POMPANO BEACH  CLOUDY    76  73  91 CALM      29.99R
PEMBROKE PINES CLOUDY    76  75  97 CALM      30.00R
OPA LOCKA      CLOUDY    75  73  93 CALM      30.00R
MIAMI          PTSUNNY   75  72  90 CALM      30.00R
WEST KENDALL   PTSUNNY   75  72  90 N3        29.99R
HOMESTEAD      PTSUNNY   75  72  90 CALM      30.00R

STATION/POSITION SKY/WX   TEMP    WIND        PRES    WAVE   SWELL
                          AIR SEA DIR/SP/G            HT/PER HT/PER
                          (F)     (DEG/KT/KT) (MB)    (FT/S) (FT/S)
PORT EVERGLADES            77     250/  2/  3 1015.5
VIRGINIA KEY               78 84  340/  2/  3   N/A
LAKE WORTH                 77 85  260/  4/  4 1015.1R
FOWEY ROCKS                81 84  340/  3/  3 1015.8R
SETTLEMENT POINT           81     270/  5/  5 1016.2R

$$



USA.gov is the U.S. government's official web portal to all federal, state and local government web resources and services.